Location: Molveno
(46.1500°N, 10.9667°E)
Time: 08:02:22
(UTC+00:00)

Resurs 01 Rocket - Pass Details

Date: 05 July 2020
Orbit: 634 x 644 km, 98.0° (Epoch: 06 August)

Event Time Altitude Azimuth Distance (km) Brightness Sun altitude
Exits shadow 20:45:39 - 201° (SSW) 2,886 4.7 -12.7°
Reaches altitude 10° 20:48:11 10° 217° (SW) 2,023 4.0 -13.0°
Maximum altitude 20:51:33 21° 267° (W) 1,425 3.8 -13.3°
Drops below altitude 10° 20:54:56 10° 317° (NW) 2,032 5.6 -13.6°
Sets 20:57:37 0° 334° (NNW) 2,945 6.9 -13.9°
